Location: Béaulencourt
(50.0796°N, 2.8795°E)
Time: 21:07:14
(UTC+00:00)

Cosmos 2297 Rocket - Pass Details

Date: 20 January 2026
Orbit: 838 x 843 km, 71.0° (Epoch: 16 February)

Event Time Altitude Azimuth Distance (km) Brightness Sun altitude
Exits shadow 05:43:06 - 341° (NNW) 2,912 4.7 -17.9°
Reaches altitude 10° 05:45:11 10° 357° (N) 2,475 4.5 -17.5°
Maximum altitude 05:47:51 13° 26° (NNE) 2,240 4.6 -17.1°
Drops below altitude 10° 05:50:33 10° 54° (NE) 2,471 5.2 -16.7°
Sets 05:54:27 0° 81° (E) 3,402 6.7 -16.1°
